INMARSAT 5-F2

导读 | 星芒AI

INMARSAT 5-F2 是一颗由 Inmarsat 运营的高轨道通信卫星,于2014年发射,位于东经17.7度的轨道位置。该卫星主要用于提供全球移动卫星通信服务,支持海事、航空和陆地用户的语音和数据传输。作为 Inmarsat 的 Global Xpress 网络的一部分,INMARSAT 5-F2 提供高速宽带连接,增强了全球范围内的通信能力与可靠性。

基本信息
目录编号:
40384
目录名称:
INMARSAT 5-F2
国际标识:
2015-005A
轨道中心:
EARTH
卫星名称:
INMARSAT 5-F2
卫星全名:
--
卫星状态:
在轨 (已飞行3923 天)
发射日期:
2015-02-01 UTC
国别 :
(IM)
星等 :
--
轨道信息
数据来源 国际轨道数据 AOE轨道数据
星历时间 2025-10-28T17:21:19+0800
21小时前
查看轨道信息
2025-10-29T08:00:00+0800
6小时前
查看轨道信息
半长轴 42165.373km 42165.037km
偏心率 0.0000144 0.0000014
轨道倾角 0.013° 0.008°
近地点辐角 200.685° 123.877°
升交点赤经 252.466° 247.314°
平近点角 29.200° 331.428°
近地点 35786.63km 35786.842km
远地点 35787.846km 35786.962km
周期 1436.130分钟 1436.112分钟
每日圈数 1.002695 1.002707
详细信息
使用方式:
暂无
2D轨道图
3D轨道图
轨道高度分析图
轨道倾角分析图
轨道综合分析图
查看轨道综合分析图